Flag for Germany Weather for the Past 2 Weeks in Neumarkt in der Oberpfalz, Bavaria, Germany

Now
32 °F

Ice fog.


Feels Like: 32 °F
Forecast: 28 / 41 °F
Wind: No wind

Location: Hohenfels

Current Time: Feb 12, 2016 at 5:26:54 AM

Latest Report: Feb 12, 2016 at 4:58 AM


Visibility: 4 mi

Pressure: 29.76 "Hg

Humidity: 100%

Dew point: 32 °F

Location of Neumarkt in der OberpfalzLocation

Historic Weather in Neumarkt in der Oberpfalz — Graph

°F

Neumarkt in der Oberpfalz Temperature Yesterday

Maximum temperature yesterday: 37 °F (at 2:58 PM)
Minimum temperature yesterday: 32 °F (at 8:58 PM)
Average temperature yesterday: 35 °F

High & Low Weather Summary for the Past Weeks

 TemperatureHumidityPressure
High54 °F (Feb 8, 2:58 PM)100% (Jan 28, 7:58 PM)30.45 "Hg (Jan 28, 7:58 PM)
Low28 °F (Jan 30, 4:58 AM)47% (Feb 8, 1:58 PM)29.23 "Hg (Feb 9, 10:00 PM)
Average40 °F85%29.99 "Hg
* Reported Jan 28 3:02 AM — Feb 12 3:58 AM, Neumarkt in der Oberpfalz, Weather by CustomWeather, © 2016

Note: Actual official high and low records may vary slightly from our data, if they occured in-between our weather recording intervals... More about our weather records

Advertising

Neumarkt in der Oberpfalz Weather History for the Previous 24 Hours

 ConditionsComfort  
Time TempWeatherWind HumidityBarometerVisibility
3:58 AM
Fri, Feb 12
32 °FIce fog.No wind100%29.75 "Hg1 mi
3:03 AM32 °FIce fog.No wind100%29.70 "Hg2 mi
1:58 AM32 °FIce fog.No wind100%29.77 "Hg5 mi
12:58 AM32 °FIce fog.No wind100%29.77 "Hg2 mi
11:58 PM
Thu, Feb 11
32 °FOvercast.2 mph100%29.78 "HgN/A
10:58 PM32 °FIce fog.1 mph100%29.78 "Hg6 mi
9:58 PM32 °FOvercast.No wind100%29.78 "HgN/A
8:58 PM32 °FOvercast.2 mph100%29.78 "HgN/A
7:58 PM34 °FOvercast.2 mph93%29.79 "HgN/A
6:58 PM34 °FOvercast.3 mph93%29.79 "HgN/A
5:58 PM36 °FOvercast.2 mph87%29.77 "HgN/A
4:58 PM37 °FOvercast.2 mph87%29.77 "HgN/A
3:58 PM37 °FMore clouds than sun.3 mph87%29.77 "HgN/A
2:58 PM37 °FPartly sunny.6 mph87%29.76 "HgN/A
1:58 PM36 °FMore clouds than sun.5 mph100%29.78 "HgN/A
12:58 PM36 °FLight rain. Low clouds.7 mph93%29.78 "HgN/A
11:59 AM36 °FLight rain. Overcast.5 mph87%29.73 "HgN/A
11:58 AM36 °FOvercast.5 mph87%29.79 "HgN/A
10:58 AM36 °FMostly cloudy.7 mph93%29.79 "HgN/A
9:58 AM36 °FLow clouds.6 mph93%29.78 "HgN/A
8:58 AM34 °FLight rain. Low clouds.5 mph93%29.77 "HgN/A
8:00 AM34 °FLight snow. Low clouds.6 mph93%29.68 "HgN/A
7:58 AM34 °FLight snow. Low clouds.6 mph93%29.75 "HgN/A
6:58 AM34 °FLight snow. Mostly cloudy.6 mph93%29.74 "HgN/A
5:58 AM36 °FLight rain. Low clouds.6 mph87%29.72 "HgN/A
Weather by CustomWeather, © 2016

See weather overviewHow to use our weather pages